Tracking 18851 objects as of 24-Nov-2017
HD Live streaming from Space Station
objects crossing your sky now

COSMOS 2180

Track COSMOS 2180 now!
10-day predictions
COSMOS 2180 is classified as:


NORAD ID: 21875
Int'l Code: 1992-008A
Perigee: 965.2 km
Apogee: 1,021.6 km
Inclination: 82.9 °
Period: 104.8 minutes
Semi major axis: 7364 km
RCS: 2.262 m2 (large)
Launch date: February 17, 1992
Source: Commonwealth of Independent States (former USSR) (CIS)
Launch site: PLESETSK MISSILE AND SPACE COMPLEX (PKMTR)
aabbcc
Your satellite tracking list
Your tracking list is empty




NASA's NSSDC Master Catalog

Two Line Element Set (TLE):
1 21875U 92008A   17328.23960420 +.00000028 +00000-0 +13064-4 0  9997
2 21875 082.9286 018.3337 0038298 035.2821 027.1986 13.73725222291487
Source of the keplerian elements: AFSPC